Location: Daybis Observatory
(33.4273°N, 88.8061°W)
Time: 20:53:03
(UTC-05:00)

Daily predictions for brighter satellites

Satellite Brightness Start Highest point End
(mag) Time Altitude Azimuth Time Altitude Azimuth Time Altitude Azimuth
Cosmos 2056 Rocket 4.1 19:02:25 10° N 19:07:32 40° ENE 19:12:35 10° SE
Cosmos 1844 4.4 19:05:04 10° NNW 19:10:32 59° WSW 19:15:58 10° S
IDEFIX/ARIANE 42P 3.7 19:08:43 10° S 19:13:45 49° W 19:18:50 10° NNW
Tiangong 2 3.7 19:11:41 10° W 19:13:53 18° SW 19:16:05 10° S
NOAA 12 4.4 19:10:03 10° SE 19:14:58 44° ENE 19:19:57 10° N
Cosmos 1844 Rocket 4.4 19:10:54 10° NW 19:16:00 37° WSW 19:21:07 10° S
SKYMED 2 4.3 19:12:38 10° N 19:16:55 59° WNW 19:21:10 10° SSW
Cosmos 1371 Rocket 4.0 19:11:55 10° NNW 19:17:13 69° ENE 19:22:31 10° SSE
Atlas Centaur 2 3.4 19:09:35 10° W 19:18:05 66° S 19:26:01 10° ESE
ASTRO E2 2.9 19:15:49 10° WSW 19:19:48 62° S 19:23:32 12° E
Cosmos 2237 Rocket 3.9 19:17:26 10° SW 19:22:41 38° WNW 19:27:56 10° N
SAR-Lupe-1 4.0 19:22:43 10° SSE 19:26:15 63° ENE 19:29:46 10° N
Aureole 2 Rocket 3.1 19:23:15 10° SSW 19:27:37 80° WNW 19:31:59 10° NNE
Cosmos 1766 3.2 19:23:46 10° S 19:27:41 73° E 19:31:39 10° N
Abrixas 3.7 19:26:02 10° SSW 19:28:34 25° SE 19:30:14 16° E
ATLAS CENTAUR R/B 1.2 19:25:45 10° NNW 19:29:52 71° ENE 19:33:39 10° SE
ATLAS 5 CENTAUR R/B 1.7 19:25:53 10° SSW 19:30:30 64° ESE 19:35:28 10° NE
Resurs 01 Rocket 2.2 19:26:50 10° SE 19:30:52 35° ENE 19:34:56 10° N
HJ-1C 4.2 19:28:36 10° SE 19:31:35 30° ENE 19:34:35 10° N
Okean 3 Rocket 3.6 19:29:42 10° N 19:34:16 88° E 19:38:48 10° S
Cosmos 1624 Rocket 3.9 19:29:39 10° NNW 19:34:53 81° ENE 19:40:04 10° SSE
SL-16 R/B 2.8 19:36:19 10° SSW 19:41:55 63° WNW 19:47:35 10° NNE
USA 215 3.5 19:35:55 10° NE 19:42:25 73° NW 19:48:55 10° SW
Cosmos 192 4.4 19:38:33 10° SSW 19:43:30 85° WNW 19:48:30 10° NNE
Meteor 1-29 3.0 19:43:30 10° NNE 19:46:58 55° E 19:50:23 10° S
Gbstr 26 Del rocket 4.3 19:44:05 10° S 19:47:30 23° ESE 19:48:32 21° ESE
Cosmos 1953 2.3 19:44:48 10° S 19:48:42 55° E 19:52:36 10° NNE
ISS -2.1 19:46:53 10° S 19:49:30 24° SE 19:49:30 24° SE
Spot 1 4.2 19:47:53 10° SSE 19:52:44 80° ENE 19:57:20 10° N
Helios 1A 2.9 19:51:05 10° SSE 19:55:10 60° ENE 19:59:19 10° N
OAO 1 Rocket 4.4 19:51:29 10° W 19:56:52 85° N 20:00:05 25° ENE
Nadezhda 4 Rocket 4.4 19:53:06 10° N 19:58:59 41° E 20:04:03 13° SE
Cosmos 1805 3.1 19:55:41 10° S 19:59:35 78° E 20:03:32 10° N
H-2A R/B 3.7 20:01:10 28° ENE 20:01:10 28° ENE 20:04:16 10° NNE
METEOR-M 4.1 19:56:14 10° SSE 20:01:35 88° WSW 20:06:58 10° NNW
SeaSat 1 2.8 19:57:32 10° NE 20:02:08 38° ESE 20:06:42 10° S
Cosmos 1544 3.2 19:58:53 10° S 20:02:29 51° E 20:06:08 10° NNE
Cosmos 1452 Rocket 3.6 19:59:05 10° N 20:04:15 55° ENE 20:07:30 22° SE
CZ-4B DEB 3.7 20:06:22 33° NE 20:06:22 33° NE 20:08:42 10° N
Cosmos 1378 4.2 20:02:27 10° NNW 20:06:03 46° W 20:09:37 10° SSW
ALOS 2.4 20:04:18 24° SE 20:06:52 49° ENE 20:11:21 10° N
SEDSat Delta rocket 4.0 20:01:58 10° W 20:08:42 76° S 20:12:12 31° E
FENGYUN 3A 3.7 20:06:43 19° SE 20:10:28 53° ENE 20:15:42 10° N
Cosmos 2278 Rocket 4.3 20:06:16 10° NW 20:10:57 27° WSW 20:15:37 10° SSW
OAO 3 Rocket 3.2 20:06:44 10° W 20:11:30 73° N 20:13:21 37° ENE
Meteor 2-12 Rocket 4.4 20:06:50 10° S 20:12:59 87° E 20:19:10 10° N
Cosmos 724 4.4 20:07:32 10° SSW 20:13:24 80° WNW 20:19:29 10° NNE
Cosmos 1634 Rocket 4.4 20:09:25 10° SSE 20:15:04 37° E 20:20:41 10° NNE
Cosmos 2297 4.3 20:10:35 10° NNW 20:16:07 56° WSW 20:21:34 10° S
Cosmos 468 4.5 20:11:09 10° SSW 20:16:25 86° WNW 20:21:41 10° NNE
Cosmos 1943 3.6 20:20:48 10° S 20:33:10 - NNE 20:25:09 40° SE
Cosmos 1766 Rocket 4.2 20:22:09 10° NNW 20:26:24 55° W 20:30:38 10° S
Cosmos 1420 Rocket 4.2 20:22:12 10° N 20:27:20 48° ENE 20:27:35 48° E
Cosmos 1603 4.0 20:23:25 10° SSW 20:29:07 69° WNW 20:34:51 10° NNE
Cosmos 2369 Rocket 3.6 20:25:35 10° N 20:28:55 22° NE 20:28:55 22° NE
Meteosat 1 Rocket2 4.3 20:26:10 10° SW 20:31:28 31° S 20:31:29 31° S
Cosmos 1269 Rocket 4.2 20:32:40 10° SSW 20:37:55 71° WNW 20:43:12 10° NNE
Cosmos 1048 Rocket 4.1 20:36:55 10° SSW 20:42:14 77° WNW 20:47:31 10° NNE
GPS 2-04 Rocket1 3.8 20:38:51 10° WSW 20:41:01 35° WSW 20:41:01 35° WSW
BREEZE-M DEB (TANK) 4.3 20:14:24 10° NW 20:44:16 89° NE 20:46:51 46° SE
ASTEX 1 3.7 20:42:04 10° N 20:46:56 64° W 20:51:45 10° SSW
SL-8 R/B 4.3 20:44:20 10° WSW 20:49:00 53° NW 20:49:42 48° N
CENTAUR R/B 2.2 20:44:34 10° SSW 20:50:27 81° ESE 20:53:12 36° NE
Cosmos 1842 Rocket 4.2 20:55:05 52° NW 20:55:05 52° NW 20:58:50 10° N
ASTRO E2 4.5 20:56:20 10° W 20:58:31 29° WSW 20:58:31 29° WSW
Resurs 01 Rocket 4.4 21:04:36 10° SW 21:07:23 16° W 21:10:12 10° NW
Atlas Centaur 2 3.7 20:59:58 10° W 21:07:30 37° SSW 21:08:50 35° S
Cosmos 2369 Rocket 4.5 22:08:57 10° NW 22:10:43 20° NW 22:10:43 20° NW
